Sparta, WI

6:27 AM CST on February 24, 2018 (GMT -0600)
Sparta-Fort McCoy

Weather History for KCMY - March, 2014

Change the Weather History Date:

Friday, March 7, 2014

  Actual Average Record
Temperature  
Mean Temperature 30 °F -  
Max Temperature 38 °F 39 °F 66 °F (2016)
Min Temperature 22 °F 17 °F -13 °F (1960)
Degree Days  
Heating Degree Days 35    
Moisture  
Dew Point 24 °F    
Average Humidity 73    
Maximum Humidity 86    
Minimum Humidity 61    
Precipitation  
Precipitation 0.06 in - - ()
Sea Level Pressure  
Sea Level Pressure 29.91 in    
Wind  
Wind Speed 5 mph (West)    
Max Wind Speed 13 mph    
Max Gust Speed 17 mph    
Visibility 8 miles    
Events      
Averages and records for this station are not official NWS values.
T = Trace of Precipitation, MM = Missing Value Source: NWS Daily Summary

Daily Weather History Graph

Daily Weather History Graph

Search for Another Location

Airport or City:

Trip Planner

Search our weather history database for the weather conditions in past years. The results will help you decide how hot, cold, wet, or windy it might be!

Date:

Astronomy

Mar. 07, 2014 Rise Set
Actual Time 6:29 AM CST 5:59 PM CST
Civil Twilight 6:00 AM CST 6:27 PM CST
Nautical Twilight 5:27 AM CST 7:01 PM CST
Astronomical Twilight 4:53 AM CST 7:35 PM CST
Moon 10:09 AM CST (3/7) 12:16 AM CST (3/7)
Length of Visible Light 12h 27m
Length of Day
11h 29m
Waxing Crescent, 42% of the Moon is Illuminated
Mar 7
Waxing Crescent
Mar 8
First Quarter
Mar 16
Full
Mar 23
Last Quarter
Mar 30
New

Hourly Weather History & Observations

Time (CST) Temp. Windchill Dew Point Humidity Pressure Visibility Wind Dir Wind Speed Gust Speed Precip Events Conditions
12:15 AM 22.8 °F - 15.6 °F 74% 29.94 in 10.0 mi Calm Calm - N/A   Clear
12:35 AM 23.7 °F 19.3 °F 16.3 °F 73% 29.94 in 10.0 mi SSW 3.5 mph - N/A   Clear
12:55 AM 23.9 °F 18.0 °F 16.5 °F 73% 29.94 in 10.0 mi SSW 4.6 mph - N/A   Clear
1:15 AM 24.4 °F 17.5 °F 17.1 °F 73% 29.92 in 10.0 mi SSW 5.8 mph - N/A   Clear
1:35 AM 24.8 °F 19.1 °F 17.4 °F 74% 29.93 in 10.0 mi SW 4.6 mph - N/A   Clear
1:55 AM 24.8 °F 19.1 °F 17.4 °F 74% 29.91 in 10.0 mi SSW 4.6 mph - N/A   Clear
2:15 AM 24.8 °F 19.1 °F 17.4 °F 74% 29.91 in 10.0 mi SSW 4.6 mph - N/A   Clear
2:35 AM 24.4 °F 18.6 °F 17.1 °F 73% 29.90 in 10.0 mi SW 4.6 mph - N/A   Clear
2:55 AM 24.4 °F 17.5 °F 16.9 °F 73% 29.90 in 10.0 mi SW 5.8 mph - N/A   Clear
3:15 AM 24.6 °F 20.3 °F 17.1 °F 73% 29.89 in 10.0 mi SW 3.5 mph - N/A   Clear
3:35 AM 24.6 °F - 17.2 °F 74% 29.88 in 10.0 mi Calm Calm - N/A   Clear
3:55 AM 24.8 °F 17.9 °F 17.4 °F 74% 29.88 in 10.0 mi SSW 5.8 mph - N/A   Clear
4:15 AM 25.3 °F 21.1 °F 17.6 °F 72% 29.87 in 10.0 mi SW 3.5 mph - N/A   Clear
4:35 AM 25.3 °F 21.1 °F 17.8 °F 73% 29.87 in 10.0 mi SW 3.5 mph - N/A   Clear
4:55 AM 25.7 °F 21.5 °F 18.1 °F 73% 29.86 in 10.0 mi SSW 3.5 mph - N/A   Clear
5:15 AM 26.4 °F 22.4 °F 18.5 °F 72% 29.86 in 10.0 mi South 3.5 mph - N/A   Clear
5:35 AM 26.4 °F - 18.5 °F 72% 29.86 in 10.0 mi Calm Calm - N/A   Clear
5:55 AM 26.6 °F - 18.5 °F 71% 29.85 in 10.0 mi Calm Calm - N/A   Clear
6:15 AM 26.8 °F - 18.9 °F 72% 29.86 in 10.0 mi Calm Calm - N/A   Clear
6:35 AM 27.0 °F 23.0 °F 19.2 °F 73% 29.85 in 10.0 mi South 3.5 mph - N/A   Clear
6:55 AM 27.0 °F 21.6 °F 19.4 °F 73% 29.85 in 10.0 mi South 4.6 mph - N/A   Scattered Clouds
7:15 AM 27.1 °F 21.8 °F 19.8 °F 74% 29.85 in 10.0 mi South 4.6 mph - N/A   Scattered Clouds
7:35 AM 28.0 °F - 20.3 °F 73% 29.85 in 10.0 mi Calm Calm - N/A   Scattered Clouds
7:55 AM 29.3 °F 25.6 °F 20.3 °F 69% 29.85 in 10.0 mi SSW 3.5 mph - N/A   Clear
8:15 AM 30.4 °F 25.6 °F 20.8 °F 68% 29.85 in 10.0 mi South 4.6 mph - N/A   Clear
8:35 AM 31.8 °F 25.4 °F 21.7 °F 66% 29.85 in 10.0 mi South 6.9 mph - N/A   Clear
8:55 AM 32.5 °F 27.1 °F 22.1 °F 65% 29.84 in 10.0 mi South 5.8 mph - N/A   Mostly Cloudy
9:15 AM 33.1 °F 27.7 °F 22.6 °F 66% 29.83 in 10.0 mi South 5.8 mph - N/A   Overcast
9:35 AM 33.8 °F 28.6 °F 23.4 °F 66% 29.83 in 10.0 mi South 5.8 mph - N/A   Mostly Cloudy
9:50 AM 34.2 °F 30.0 °F 23.7 °F 66% 29.83 in 10.0 mi South 4.6 mph - N/A   Mostly Cloudy
10:15 AM 36.0 °F 31.1 °F 24.6 °F 63% 29.83 in 10.0 mi South 5.8 mph - N/A   Scattered Clouds
10:35 AM 37.6 °F 32.3 °F 25.2 °F 61% 29.82 in 10.0 mi SSW 6.9 mph - 0.01 in   Scattered Clouds
10:55 AM 38.5 °F 34.1 °F 25.9 °F 61% 29.83 in 10.0 mi WSW 5.8 mph - 0.02 in   Scattered Clouds
11:15 AM 37.8 °F 32.5 °F 26.6 °F 64% 29.83 in 10.0 mi West 6.9 mph - 0.01 in   Overcast
11:35 AM 37.8 °F 33.3 °F 26.8 °F 65% 29.84 in 10.0 mi West 5.8 mph - 0.02 in   Overcast
11:50 AM 38.1 °F 33.7 °F 26.8 °F 64% 29.83 in 10.0 mi West 5.8 mph - 0.02 in   Overcast
12:10 PM 37.9 °F 32.1 °F 27.1 °F 65% 29.83 in 10.0 mi West 8.1 mph - N/A   Overcast
12:35 PM 37.4 °F 31.4 °F 27.0 °F 66% 29.84 in 7.0 mi West 8.1 mph - 0.01 in   Overcast
12:55 PM 37.8 °F 32.5 °F 27.3 °F 66% 29.84 in 7.0 mi West 6.9 mph - 0.01 in   Overcast
1:15 PM 38.3 °F 33.9 °F 27.1 °F 64% 29.83 in 7.0 mi West 5.8 mph - 0.01 in   Overcast
1:35 PM 37.9 °F 32.7 °F 27.9 °F 67% 29.83 in 5.0 mi WNW 6.9 mph - 0.01 in   Haze
1:55 PM 37.8 °F 31.8 °F 27.9 °F 67% 29.85 in 5.0 mi WNW 8.1 mph - 0.01 in   Haze
2:15 PM 37.6 °F 33.1 °F 27.9 °F 68% 29.85 in 5.0 mi WNW 5.8 mph - N/A   Haze
2:35 PM 37.8 °F 32.5 °F 27.9 °F 67% 29.85 in 7.0 mi West 6.9 mph - N/A   Overcast
2:55 PM 37.6 °F 33.1 °F 27.9 °F 68% 29.85 in 5.0 mi West 5.8 mph - N/A   Haze
3:10 PM 37.9 °F 33.5 °F 27.7 °F 67% 29.86 in 5.0 mi WNW 5.8 mph - N/A   Haze
3:35 PM 37.6 °F 31.0 °F 28.2 °F 69% 29.87 in 5.0 mi WNW 9.2 mph - N/A   Haze
3:55 PM 36.7 °F 29.9 °F 28.4 °F 72% 29.88 in 5.0 mi NNW 9.2 mph - N/A   Haze
4:15 PM 36.0 °F 29.6 °F 28.9 °F 76% 29.89 in 5.0 mi NW 8.1 mph - N/A   Haze
4:35 PM 35.6 °F 28.6 °F 28.9 °F 77% 29.90 in 4.0 mi NW 9.2 mph 16.1 mph N/A   Haze
4:55 PM 35.2 °F 29.5 °F 28.9 °F 78% 29.92 in 4.0 mi NNW 6.9 mph - N/A   Haze
5:15 PM 35.2 °F 28.8 °F 28.6 °F 77% 29.93 in 4.0 mi NNW 8.1 mph - N/A   Haze
5:35 PM 35.1 °F 27.9 °F 28.4 °F 77% 29.95 in 4.0 mi NW 9.2 mph - N/A   Haze
5:55 PM 34.7 °F 26.4 °F 28.6 °F 78% 29.96 in 4.0 mi NNW 11.5 mph - N/A   Haze
6:15 PM 34.0 °F 27.2 °F 28.8 °F 81% 29.98 in 5.0 mi NNW 8.1 mph - N/A   Haze
6:35 PM 33.8 °F 25.8 °F 28.8 °F 82% 29.98 in 7.0 mi NNW 10.4 mph - N/A   Overcast
6:50 PM 33.4 °F 26.6 °F 28.6 °F 82% 29.99 in 7.0 mi NNW 8.1 mph - N/A   Overcast
7:15 PM 33.1 °F 26.1 °F 28.8 °F 84% 30.00 in 5.0 mi NNW 8.1 mph - N/A   Overcast
7:30 PM 32.9 °F 25.3 °F 28.6 °F 84% 30.01 in 5.0 mi North 9.2 mph - N/A   Haze
7:55 PM 32.9 °F 25.9 °F 28.8 °F 85% 30.02 in 5.0 mi NNW 8.1 mph - N/A   Overcast
8:15 PM 32.7 °F 27.3 °F 28.9 °F 86% 30.02 in 5.0 mi NNW 5.8 mph - N/A   Overcast
8:35 PM 32.5 °F 24.8 °F 28.8 °F 86% 30.02 in 5.0 mi North 9.2 mph - N/A   Overcast
8:55 PM 32.7 °F 25.0 °F 28.4 °F 84% 30.02 in 5.0 mi NNW 9.2 mph - N/A   Haze
9:15 PM 32.9 °F 25.3 °F 28.2 °F 83% 30.02 in 7.0 mi NNW 9.2 mph 16.1 mph N/A   Overcast
9:35 PM 32.5 °F 23.2 °F 27.5 °F 82% 30.03 in 7.0 mi North 12.7 mph 17.3 mph N/A   Overcast
9:55 PM 32.9 °F 24.1 °F 27.1 °F 79% 30.04 in 7.0 mi North 11.5 mph 16.1 mph N/A   Overcast
10:15 PM 32.5 °F 26.2 °F 26.6 °F 79% 30.05 in 10.0 mi North 6.9 mph - N/A   Overcast
10:35 PM 32.5 °F 24.8 °F 25.9 °F 76% 30.07 in 10.0 mi North 9.2 mph - N/A   Overcast
10:55 PM 32.4 °F 26.0 °F 25.7 °F 76% 30.07 in 10.0 mi North 6.9 mph - N/A   Overcast
11:15 PM 32.4 °F 26.9 °F 24.8 °F 74% 30.08 in 10.0 mi North 5.8 mph - N/A   Overcast
11:35 PM 32.0 °F 27.5 °F 24.1 °F 73% 30.08 in 10.0 mi North 4.6 mph - N/A   Overcast
11:55 PM 32.0 °F 27.5 °F 23.9 °F 72% 30.09 in 10.0 mi North 4.6 mph - N/A   Overcast